This demonstration page uses our WeatherBlox Daily Observations layout. Learn more.

Left ArrowRight Arrow

38.88101, -77.10428

Hourly Observations for October 20, 2021

Temp ( °F °C ) Dew Point ( °F °C ) Humidity (%) Winds ( mph kmh ) Pressure ( in mb ) Visibility ( mi km ) Precip ( " mm )
12:52 am 00:52 Clear 60 15.6 44 6.7 56 56 W 5 7 30.12 1020 10 16 N/A
1:52 am 01:52 Mostly Clear 60 15.6 45 7.2 58 58 SSW 3 6 30.12 1020 10 16 N/A
2:52 am 02:52 Partly Cloudy 59 15 50 10 72 72 S 7 11 30.12 1020 10 16 N/A
3:52 am 03:52 Partly Cloudy 56 13.3 49 9.4 77 77 S 6 9 30.12 1020 10 16 N/A
4:52 am 04:52 Partly Cloudy 55 12.8 46 7.8 72 72 SSW 6 9 30.12 1020 10 16 N/A
5:52 am 05:52 Mostly Cloudy 54 12.2 46 7.8 75 75 SSW 5 7 30.14 1021 10 16 N/A
6:52 am 06:52 Cloudy 54 12.2 45 7.2 72 72 SW 5 7 30.16 1021 10 16 N/A
7:52 am 07:52 Mostly Cloudy 55 12.8 47 8.3 74 74 SSW 7 11 30.16 1021 10 16 N/A
8:52 am 08:52 Mostly Sunny 59 15 48 8.9 67 67 SSW 6 9 30.18 1022 10 16 N/A
9:52 am 09:52 Mostly Sunny 66 18.9 47 8.3 50 50 WSW 8 13 30.18 1022 10 16 N/A
10:52 am 10:52 Mostly Sunny 72 22.2 48 8.9 43 43 WNW 8 13 30.19 1022 10 16 N/A
11:52 am 11:52 Sunny 74 23.3 46 7.8 37 37 WNW 13 20 30.17 1022 10 16 N/A
12:52 pm 12:52 Sunny 76 24.4 46 7.8 35 35 WNW 12 19 30.15 1021 10 16 N/A
1:52 pm 13:52 Sunny 76 24.4 46 7.8 35 35 WNW 10 17 30.13 1020 10 16 N/A
2:52 pm 14:52 Sunny 77 25 46 7.8 33 33 WSW 8 13 30.10 1019 10 16 N/A
3:52 pm 15:52 Sunny 77 25 47 8.3 35 35 WNW 9 15 30.10 1019 10 16 N/A
4:52 pm 16:52 Sunny 76 24.4 46 7.8 35 35 W 10 17 30.09 1019 10 16 N/A
5:52 pm 17:52 Sunny 74 23.3 46 7.8 37 37 WSW 7 11 30.09 1019 10 16 N/A
6:52 pm 18:52 Clear 71 21.7 46 7.8 41 41 SW 5 7 30.09 1019 10 16 N/A
7:52 pm 19:52 Clear 66 18.9 54 12.2 65 65 S 8 13 30.10 1019 10 16 N/A
8:52 pm 20:52 Clear 64 17.8 54 12.2 70 70 S 7 11 30.10 1019 10 16 N/A
9:52 pm 21:52 Clear 64 17.8 52 11.1 65 65 SSW 3 6 30.10 1019 10 16 N/A
10:52 pm 22:52 Clear 61 16.1 53 11.7 75 75 SSW 5 7 30.09 1019 10 16 N/A
11:52 pm 23:52 Clear 61 16.1 54 12.2 78 78 S 6 9 30.09 1019 10 16 N/A

Powered by AerisWeather